This demonstration page uses our WeatherBlox Daily Observations layout. Learn more.

Left ArrowRight Arrow

38.88101, -77.10428

Hourly Observations for May 31, 2021

Temp ( °F °C ) Dew Point ( °F °C ) Humidity (%) Winds ( mph kmh ) Pressure ( in mb ) Visibility ( mi km ) Precip ( " mm )
12:52 am 00:52 Mostly Clear 53 11.7 46 7.8 77 77 WNW 9 15 30.24 1024 10 16 N/A
1:52 am 01:52 Mostly Clear 53 11.7 45 7.2 74 74 NW 8 13 30.24 1024 10 16 N/A
2:52 am 02:52 Mostly Clear 50 10 45 7.2 83 83 NNW 6 9 30.24 1024 10 16 N/A
3:52 am 03:52 Mostly Cloudy 52 11.1 46 7.8 80 80 W 7 11 30.26 1025 10 16 N/A
4:52 am 04:52 Mostly Cloudy 51 10.6 45 7.2 80 80 N N/A 30.25 1025 10 16 N/A
5:52 am 05:52 Mostly Sunny 50 10 45 7.2 83 83 SW 3 6 30.26 1025 10 16 N/A
6:52 am 06:52 Mostly Sunny 52 11.1 47 8.3 83 83 W 7 11 30.29 1026 10 16 N/A
7:52 am 07:52 Mostly Sunny 57 13.9 48 8.9 72 72 WNW 7 11 30.30 1026 10 16 N/A
8:52 am 08:52 Mostly Sunny 61 16.1 49 9.4 65 65 NW 14 22 30.32 1027 10 16 N/A
9:52 am 09:52 Mostly Sunny 59 15 50 10 72 72 NNW 10 17 30.32 1027 10 16 N/A
10:52 am 10:52 Partly Cloudy 66 18.9 50 10 56 56 N 8 13 30.32 1027 10 16 N/A
11:52 am 11:52 Partly Cloudy 68 20 48 8.9 49 49 undefined N/A 30.30 1026 10 16 N/A
12:52 pm 12:52 Mostly Cloudy 70 21.1 48 8.9 46 46 WNW 10 17 30.30 1026 10 16 N/A
1:52 pm 13:52 Mostly Cloudy 71 21.7 48 8.9 44 44 NNW 10 17 30.28 1025 10 16 N/A
2:52 pm 14:52 Mostly Cloudy 73 22.8 48 8.9 41 41 WNW 8 13 30.26 1025 10 16 N/A
3:52 pm 15:52 Partly Cloudy 74 23.3 46 7.8 37 37 N N/A 30.25 1024 10 16 N/A
4:52 pm 16:52 Partly Cloudy 74 23.3 47 8.3 38 38 VRB 3 6 30.25 1024 10 16 N/A
5:52 pm 17:52 Mostly Sunny 75 23.9 46 7.8 36 36 undefined N/A 30.25 1025 10 16 N/A
6:52 pm 18:52 Partly Cloudy 74 23.3 45 7.2 36 36 NNW 5 7 30.26 1025 10 16 N/A
7:52 pm 19:52 Partly Cloudy 73 22.8 45 7.2 37 37 VRB 3 6 30.27 1025 10 16 N/A
8:52 pm 20:52 Mostly Clear 69 20.6 46 7.8 44 44 VRB 3 6 30.26 1025 10 16 N/A
9:52 pm 21:52 Mostly Clear 67 19.4 51 10.6 57 57 N N/A 30.28 1025 10 16 N/A
10:52 pm 22:52 Mostly Clear 64 17.8 50 10 60 60 SSW 6 9 30.28 1025 10 16 N/A
11:52 pm 23:52 Mostly Clear 62 16.7 53 11.7 73 73 SSW 5 7 30.28 1025 10 16 N/A

Powered by AerisWeather